STARLINK-32275, 60360

Orbit data source: Space-Track

STARLINK-32275, 60360 is a payload satellite owned by SpaceX/Seattle (US) in LEO that was launched on Sun, 04 Aug 2024 UTC via an FALCON 9 launch vehicle from the Air Force Western Test Range (AFWTR). Payload-class satellites include a variety of spacecraft equipped with specific instruments for various scientific and technological missions. These include communications satellites like Starlink; space stations such as the ISS; scientific satellites like the Hubble; Earth observation satellites from companies like Planet Labs, Umbra, and HawkEye 360; GPS; miniature CubeSats for education and research; and military/defense satellites.

Loading next visibility...
Identifier
60360, 2024-138F
Orbit
LEO
Country
Flag of USUS
Related business
Manufacturer
SpaceX/Seattle
Mission
Operational Commercial Communications
Bus & Motor
STARLINK V2M, Unknown motor
Mass
730 kg wet, ~700 kg dry
Launch date (UTC)
2024-08-04 (2 years ago)
Launch vehicle
FALCON 9
Launch site
Air Force Western Test Range (AFWTR)
Object type
Payload
Rocket body
Debris
Shape & HBR
Box + 2 Pan, 17.7 m
Radar Cross Section
33.884 m², Large (>1 m²)

Expand to show TLE details & history
Last TLE update: 14 hours ago

TLE from 14 hours ago
0 STARLINK-32275
1 60360U 24138F   26258.07020425 -.00000393  00000-0 -87838-6 0  9993
2 60360  53.1614 148.4604 0001534  94.9226 265.1950 15.31699533119643
Epoch: 2026-09-15T01:41Z
TLE epoch observation values (Epoch: 2026-09-15T01:41:05.647Z)
Latitude
-0.00005°
Longitude
129.1454°
Altitude
471.73 km
Speed
7.631 km/s
True Right ascension
09h 53m 50s
True Declination
0° 00' 00"
Sunlit
Object was in daylight at epoch
Visualization orbit readout
Latitude
Unknown
Longitude
Unknown
Altitude
Unknown
Speed
Unknown
Apparent Right ascension
Unknown
Apparent Declination
Unknown
Sunlit
N/A
Visualization observer readout
Local Sidereal Time
08:41:24
Azimuth
Unknown
Elevation
Unknown
Doppler factor
Unknown
Orbital elements
Apogee altitude
472.048 km
Perigee altitude
469.947 km
Semi-major axis
6,849.135 km
Eccentricity
0.00015
Inclination
53.1614°
RAAN
148.4604°
Arg. of periapsis
94.9226°
True anomaly
265.17748°
Mean anomaly
265.195°
Eccentric anomaly
265.18624°
Mean motion
3.82904 °/min
Orbital period
94.02 mins
BSTAR
-8.7838e-7
Loading maneuver chart data...
Computing Atmospheric mass density...
Loading historical data...
Loading historical data...
Loading historical data...
Loading historical data...
Loading historical data...
Loading historical data...
Loading historical data...

Documentation

Showing up to 5 results
|